Time,TemperatureF,DewpointF,PressureIn,WindDirection,WindDirectionDegrees,WindSpeedMPH,WindSpeedGustMPH,Humidity,HourlyPrecipIn,Conditions,Clouds,dailyrainin,SoftwareType,DateUTC
2013-03-02 00:00:00,37.6,30.0,29.94,East,90,0.0,1.0,74,0.00,,,0.00,meteohub,2013-03-02 05:00:00,
2013-03-02 00:01:00,37.6,30.4,29.95,East,90,0.0,1.0,75,0.00,,,0.00,meteohub,2013-03-02 05:01:00,
2013-03-02 00:06:00,36.9,28.4,29.95,East,90,0.0,1.0,71,0.00,,,0.00,meteohub,2013-03-02 05:06:00,
2013-03-02 00:11:00,36.5,28.4,29.95,East,90,0.0,1.0,72,0.00,,,0.00,meteohub,2013-03-02 05:11:00,
2013-03-02 00:16:00,36.1,28.0,29.95,East,90,0.0,0.0,72,0.00,,,0.00,meteohub,2013-03-02 05:16:00,
2013-03-02 00:21:00,35.8,28.0,29.94,SW,225,0.0,1.0,73,0.00,,,0.00,meteohub,2013-03-02 05:21:00,
2013-03-02 00:26:00,35.4,28.2,29.95,SW,225,0.0,1.0,75,0.00,,,0.00,meteohub,2013-03-02 05:26:00,
2013-03-02 00:31:00,35.1,28.2,29.95,SW,225,0.0,1.0,76,0.00,,,0.00,meteohub,2013-03-02 05:31:00,
2013-03-02 00:36:00,34.5,28.0,29.95,SW,225,0.0,1.0,77,0.00,,,0.00,meteohub,2013-03-02 05:36:00,
2013-03-02 00:41:00,34.3,28.2,29.94,SW,225,0.0,0.0,78,0.00,,,0.00,meteohub,2013-03-02 05:41:00,
2013-03-02 00:46:00,34.0,28.2,29.94,SW,225,0.0,1.0,79,0.00,,,0.00,meteohub,2013-03-02 05:46:00,
2013-03-02 00:51:00,33.6,28.4,29.95,SW,225,0.0,1.0,81,0.00,,,0.00,meteohub,2013-03-02 05:51:00,
2013-03-02 00:56:00,33.4,28.6,29.95,SW,225,0.0,0.0,82,0.00,,,0.00,meteohub,2013-03-02 05:56:00,
2013-03-02 01:01:00,33.3,28.4,29.95,SW,225,0.0,1.0,82,0.00,,,0.00,meteohub,2013-03-02 06:01:00,
2013-03-02 01:06:00,33.3,28.4,29.95,SW,225,0.0,1.0,82,0.00,,,0.00,meteohub,2013-03-02 06:06:00,
2013-03-02 01:12:00,32.7,28.2,29.96,SW,225,0.0,1.0,83,0.00,,,0.00,meteohub,2013-03-02 06:12:00,
2013-03-02 01:17:00,32.5,28.2,29.96,SW,225,0.0,0.0,84,0.00,,,0.00,meteohub,2013-03-02 06:17:00,
2013-03-02 01:22:00,32.4,28.0,29.96,SW,225,0.0,0.0,84,0.00,,,0.00,meteohub,2013-03-02 06:22:00,
2013-03-02 01:27:00,32.2,28.2,29.96,SW,225,0.0,0.0,85,0.00,,,0.00,meteohub,2013-03-02 06:27:00,
2013-03-02 01:32:00,32.0,28.0,29.96,SW,225,0.0,0.0,85,0.00,,,0.00,meteohub,2013-03-02 06:32:00,
2013-03-02 01:37:00,32.0,28.2,29.96,SW,225,0.0,0.0,86,0.00,,,0.00,meteohub,2013-03-02 06:37:00,
2013-03-02 01:42:00,31.6,28.6,29.97,SW,225,1.0,0.0,88,0.00,,,0.00,meteohub,2013-03-02 06:42:00,
2013-03-02 01:47:00,31.6,28.6,29.97,SW,225,0.0,1.0,88,0.00,,,0.00,meteohub,2013-03-02 06:47:00,
2013-03-02 01:52:00,31.6,28.8,29.96,SW,225,0.0,1.0,89,0.00,,,0.00,meteohub,2013-03-02 06:52:00,
2013-03-02 01:57:00,31.5,28.6,29.96,SW,225,0.0,1.0,89,0.00,,,0.00,meteohub,2013-03-02 06:57:00,
2013-03-02 02:02:00,31.3,28.8,29.96,SW,225,0.0,0.0,90,0.00,,,0.00,meteohub,2013-03-02 07:02:00,
2013-03-02 02:07:00,31.1,28.6,29.96,SW,225,0.0,0.0,90,0.00,,,0.00,meteohub,2013-03-02 07:07:00,
2013-03-02 02:12:00,30.9,28.4,29.96,SW,225,0.0,0.0,90,0.00,,,0.00,meteohub,2013-03-02 07:12:00,
2013-03-02 02:17:00,30.7,28.2,29.95,NE,45,0.0,0.0,90,0.00,,,0.00,meteohub,2013-03-02 07:17:00,
2013-03-02 02:22:00,30.6,28.2,29.95,NE,45,0.0,1.0,91,0.00,,,0.00,meteohub,2013-03-02 07:22:00,
2013-03-02 02:27:00,30.4,28.4,29.95,NE,45,0.0,1.0,92,0.00,,,0.00,meteohub,2013-03-02 07:27:00,
2013-03-02 02:32:00,30.4,28.4,29.95,NE,45,0.0,1.0,92,0.00,,,0.00,meteohub,2013-03-02 07:32:00,
2013-03-02 02:37:00,30.2,28.2,29.95,NE,45,0.0,1.0,92,0.00,,,0.00,meteohub,2013-03-02 07:37:00,
2013-03-02 02:42:00,30.0,28.2,29.95,NE,45,0.0,1.0,93,0.00,,,0.00,meteohub,2013-03-02 07:42:00,
2013-03-02 02:47:00,30.0,28.6,29.95,NE,45,0.0,1.0,94,0.00,,,0.00,meteohub,2013-03-02 07:47:00,
2013-03-02 02:52:00,29.8,28.4,29.95,NE,45,0.0,1.0,94,0.00,,,0.00,meteohub,2013-03-02 07:52:00,
2013-03-02 02:57:00,29.7,28.2,29.95,NE,45,0.0,0.0,94,0.00,,,0.00,meteohub,2013-03-02 07:57:00,
2013-03-02 03:02:00,29.7,28.2,29.95,NE,45,0.0,1.0,94,0.00,,,0.00,meteohub,2013-03-02 08:02:00,
2013-03-02 03:07:00,29.7,28.2,29.95,NE,45,0.0,1.0,94,0.00,,,0.00,meteohub,2013-03-02 08:07:00,
2013-03-02 03:12:00,29.5,28.0,29.95,NE,45,0.0,1.0,94,0.00,,,0.00,meteohub,2013-03-02 08:12:00,
2013-03-02 03:17:00,29.5,28.2,29.94,NE,45,0.0,0.0,95,0.00,,,0.00,meteohub,2013-03-02 08:17:00,
2013-03-02 03:22:00,29.5,28.2,29.94,NE,45,0.0,0.0,95,0.00,,,0.00,meteohub,2013-03-02 08:22:00,
2013-03-02 03:27:00,29.3,28.0,29.94,NE,45,0.0,0.0,95,0.00,,,0.00,meteohub,2013-03-02 08:27:00,
2013-03-02 03:32:00,29.1,27.9,29.94,NE,45,0.0,0.0,95,0.00,,,0.00,meteohub,2013-03-02 08:32:00,
2013-03-02 03:37:00,29.1,27.9,29.94,NE,45,0.0,0.0,95,0.00,,,0.00,meteohub,2013-03-02 08:37:00,
2013-03-02 03:42:00,29.1,28.0,29.94,NE,45,0.0,1.0,96,0.00,,,0.00,meteohub,2013-03-02 08:42:00,
2013-03-02 03:47:00,28.9,27.9,29.94,NE,45,0.0,1.0,96,0.00,,,0.00,meteohub,2013-03-02 08:47:00,
2013-03-02 03:52:00,29.3,28.2,29.94,SW,225,0.0,1.0,96,0.00,,,0.00,meteohub,2013-03-02 08:52:00,
2013-03-02 03:57:00,29.3,28.6,29.94,SW,225,0.0,2.0,97,0.00,,,0.00,meteohub,2013-03-02 08:57:00,
2013-03-02 04:02:00,29.3,28.6,29.94,SW,225,0.0,2.0,97,0.00,,,0.00,meteohub,2013-03-02 09:02:00,
2013-03-02 04:07:00,29.1,28.4,29.94,SW,225,0.0,2.0,97,0.00,,,0.00,meteohub,2013-03-02 09:07:00,
2013-03-02 04:12:00,28.9,28.2,29.94,SW,225,0.0,0.0,97,0.00,,,0.00,meteohub,2013-03-02 09:12:00,
2013-03-02 04:17:00,28.9,28.2,29.94,SW,225,0.0,0.0,97,0.00,,,0.00,meteohub,2013-03-02 09:17:00,
2013-03-02 04:23:00,28.8,28.0,29.94,SW,225,0.0,0.0,97,0.00,,,0.00,meteohub,2013-03-02 09:23:00,
2013-03-02 04:28:00,28.8,28.0,29.94,SW,225,0.0,0.0,97,0.00,,,0.00,meteohub,2013-03-02 09:28:00,
2013-03-02 04:33:00,28.9,28.2,29.94,SW,225,0.0,2.0,97,0.00,,,0.00,meteohub,2013-03-02 09:33:00,
2013-03-02 04:38:00,29.1,28.4,29.94,SW,225,1.0,2.0,97,0.00,,,0.00,meteohub,2013-03-02 09:38:00,
2013-03-02 04:43:00,28.9,28.2,29.94,SW,225,0.0,2.0,97,0.00,,,0.00,meteohub,2013-03-02 09:43:00,
2013-03-02 04:48:00,28.8,28.0,29.94,SW,225,0.0,1.0,97,0.00,,,0.00,meteohub,2013-03-02 09:48:00,
2013-03-02 04:53:00,28.6,28.0,29.94,SW,225,0.0,1.0,98,0.00,,,0.00,meteohub,2013-03-02 09:53:00,
2013-03-02 04:58:00,28.4,27.9,29.94,SW,225,0.0,0.0,98,0.00,,,0.00,meteohub,2013-03-02 09:58:00,
2013-03-02 05:03:00,28.4,27.9,29.94,SW,225,0.0,0.0,98,0.00,,,0.00,meteohub,2013-03-02 10:03:00,
2013-03-02 05:10:00,28.4,27.9,29.94,SW,225,0.0,0.0,98,0.00,,,0.00,meteohub,2013-03-02 10:10:00,
2013-03-02 05:15:00,28.2,26.8,29.94,SW,225,0.0,0.0,94,0.00,,,0.00,meteohub,2013-03-02 10:15:00,
2013-03-02 05:20:00,28.2,26.8,29.94,SW,225,0.0,0.0,94,0.00,,,0.00,meteohub,2013-03-02 10:20:00,
2013-03-02 05:25:00,28.0,26.6,29.93,SW,225,0.0,0.0,94,0.00,,,0.00,meteohub,2013-03-02 10:25:00,
2013-03-02 05:30:00,27.9,26.4,29.94,SW,225,0.0,0.0,94,0.00,,,0.00,meteohub,2013-03-02 10:30:00,
2013-03-02 05:36:00,27.7,26.2,29.94,SW,225,0.0,0.0,94,0.00,,,0.00,meteohub,2013-03-02 10:36:00,
2013-03-02 05:41:00,27.7,25.9,29.94,SW,225,0.0,0.0,93,0.00,,,0.00,meteohub,2013-03-02 10:41:00,
2013-03-02 05:46:00,27.7,25.9,29.94,SW,225,0.0,0.0,93,0.00,,,0.00,meteohub,2013-03-02 10:46:00,
2013-03-02 05:51:00,27.7,26.2,29.94,SW,225,0.0,0.0,94,0.00,,,0.00,meteohub,2013-03-02 10:51:00,
2013-03-02 05:56:00,27.7,26.2,29.94,SW,225,0.0,0.0,94,0.00,,,0.00,meteohub,2013-03-02 10:56:00,
2013-03-02 06:01:00,27.7,26.2,29.95,SW,225,0.0,0.0,94,0.00,,,0.00,meteohub,2013-03-02 11:01:00,
2013-03-02 06:06:00,27.5,26.1,29.95,SW,225,0.0,0.0,94,0.00,,,0.00,meteohub,2013-03-02 11:06:00,
2013-03-02 06:11:00,27.5,26.1,29.95,SW,225,0.0,0.0,94,0.00,,,0.00,meteohub,2013-03-02 11:11:00,
2013-03-02 06:16:00,27.5,26.1,29.94,SW,225,0.0,0.0,94,0.00,,,0.00,meteohub,2013-03-02 11:16:00,
2013-03-02 06:21:00,27.5,26.1,29.95,SW,225,0.0,0.0,94,0.00,,,0.00,meteohub,2013-03-02 11:21:00,
2013-03-02 06:27:00,27.5,26.1,29.95,SW,225,0.0,0.0,94,0.00,,,0.00,meteohub,2013-03-02 11:27:00,
2013-03-02 06:32:00,27.5,26.2,29.95,SW,225,0.0,0.0,95,0.00,,,0.00,meteohub,2013-03-02 11:32:00,
2013-03-02 06:37:00,27.5,26.2,29.95,SW,225,0.0,0.0,95,0.00,,,0.00,meteohub,2013-03-02 11:37:00,
2013-03-02 06:42:00,27.7,26.4,29.95,SW,225,0.0,0.0,95,0.00,,,0.00,meteohub,2013-03-02 11:42:00,
2013-03-02 06:47:00,27.7,26.4,29.95,SW,225,0.0,0.0,95,0.00,,,0.00,meteohub,2013-03-02 11:47:00,
2013-03-02 06:52:00,27.7,26.4,29.95,SW,225,0.0,0.0,95,0.00,,,0.00,meteohub,2013-03-02 11:52:00,
2013-03-02 06:57:00,27.9,26.6,29.95,SW,225,0.0,0.0,95,0.00,,,0.00,meteohub,2013-03-02 11:57:00,
2013-03-02 07:02:00,27.9,26.6,29.95,SW,225,0.0,0.0,95,0.00,,,0.00,meteohub,2013-03-02 12:02:00,
2013-03-02 07:07:00,28.0,27.0,29.95,SW,225,0.0,0.0,96,0.00,,,0.00,meteohub,2013-03-02 12:07:00,
2013-03-02 07:12:00,28.2,27.1,29.95,SW,225,0.0,0.0,96,0.00,,,0.00,meteohub,2013-03-02 12:12:00,
2013-03-02 07:17:00,28.4,28.2,29.95,SW,225,0.0,0.0,99,0.00,,,0.00,meteohub,2013-03-02 12:17:00,
2013-03-02 07:22:00,28.8,28.6,29.95,SW,225,0.0,0.0,99,0.00,,,0.00,meteohub,2013-03-02 12:22:00,
2013-03-02 07:27:00,29.1,28.9,29.96,SW,225,0.0,0.0,99,0.00,,,0.00,meteohub,2013-03-02 12:27:00,
2013-03-02 07:32:00,29.5,29.3,29.95,SW,225,0.0,0.0,99,0.00,,,0.00,meteohub,2013-03-02 12:32:00,
2013-03-02 07:37:00,29.8,29.7,29.95,SW,225,0.0,0.0,99,0.00,,,0.00,meteohub,2013-03-02 12:37:00,
2013-03-02 07:42:00,30.4,30.2,29.95,SW,225,0.0,0.0,99,0.00,,,0.00,meteohub,2013-03-02 12:42:00,
2013-03-02 07:47:00,30.9,30.7,29.95,SW,225,0.0,0.0,99,0.00,,,0.00,meteohub,2013-03-02 12:47:00,
2013-03-02 07:52:00,31.5,31.3,29.95,SW,225,0.0,0.0,99,0.00,,,0.00,meteohub,2013-03-02 12:52:00,
2013-03-02 07:57:00,32.0,31.8,29.96,SW,225,0.0,0.0,99,0.00,,,0.00,meteohub,2013-03-02 12:57:00,
2013-03-02 08:02:00,32.5,32.4,29.95,SW,225,0.0,0.0,99,0.00,,,0.00,meteohub,2013-03-02 13:02:00,
2013-03-02 08:07:00,32.9,32.7,29.95,SW,225,0.0,0.0,99,0.00,,,0.00,meteohub,2013-03-02 13:07:00,
2013-03-02 08:12:00,33.3,33.1,29.95,SW,225,0.0,0.0,99,0.00,,,0.00,meteohub,2013-03-02 13:12:00,
2013-03-02 08:17:00,33.8,33.3,29.95,SW,225,0.0,0.0,98,0.00,,,0.00,meteohub,2013-03-02 13:17:00,
2013-03-02 08:22:00,34.3,33.8,29.96,SW,225,0.0,0.0,98,0.00,,,0.00,meteohub,2013-03-02 13:22:00,
2013-03-02 08:27:00,35.1,34.5,29.96,East,90,0.0,0.0,98,0.00,,,0.00,meteohub,2013-03-02 13:27:00,
2013-03-02 08:32:00,35.8,34.7,29.95,East,90,0.0,0.0,96,0.00,,,0.00,meteohub,2013-03-02 13:32:00,
2013-03-02 08:37:00,36.5,35.4,29.95,East,90,0.0,0.0,96,0.00,,,0.00,meteohub,2013-03-02 13:37:00,
2013-03-02 08:42:00,37.0,35.4,29.95,East,90,0.0,0.0,94,0.00,,,0.00,meteohub,2013-03-02 13:42:00,
2013-03-02 08:47:00,37.6,36.5,29.95,NW,315,2.0,2.0,96,0.00,,,0.00,meteohub,2013-03-02 13:47:00,
2013-03-02 08:52:00,37.9,36.3,29.95,NE,45,1.0,2.0,94,0.00,,,0.00,meteohub,2013-03-02 13:52:00,
2013-03-02 08:57:00,38.3,36.0,29.94,West,270,1.0,2.0,91,0.00,,,0.00,meteohub,2013-03-02 13:57:00,
2013-03-02 09:02:00,38.8,35.6,29.94,SW,225,0.0,2.0,88,0.00,,,0.00,meteohub,2013-03-02 14:02:00,
2013-03-02 09:07:00,39.4,35.6,29.94,SW,225,2.0,2.0,86,0.00,,,0.00,meteohub,2013-03-02 14:07:00,
2013-03-02 09:12:00,40.1,36.0,29.94,West,270,1.0,2.0,85,0.00,,,0.00,meteohub,2013-03-02 14:12:00,
2013-03-02 09:17:00,40.8,36.3,29.94,South,180,2.0,2.0,84,0.00,,,0.00,meteohub,2013-03-02 14:17:00,
2013-03-02 09:22:00,41.4,36.0,29.94,West,270,1.0,2.0,81,0.00,,,0.00,meteohub,2013-03-02 14:22:00,
2013-03-02 09:27:00,41.9,35.8,29.94,West,270,2.0,2.0,79,0.00,,,0.00,meteohub,2013-03-02 14:27:00,
2013-03-02 09:32:00,42.4,35.1,29.93,West,270,2.0,2.0,75,0.00,,,0.00,meteohub,2013-03-02 14:32:00,
2013-03-02 09:37:00,42.8,34.3,29.93,West,270,3.0,3.0,72,0.00,,,0.00,meteohub,2013-03-02 14:37:00,
2013-03-02 09:42:00,42.8,32.9,29.92,NW,315,3.0,3.0,68,0.00,,,0.00,meteohub,2013-03-02 14:42:00,
2013-03-02 09:47:00,42.4,31.8,29.92,NW,315,2.0,4.0,66,0.00,,,0.00,meteohub,2013-03-02 14:47:00,
2013-03-02 09:52:00,42.6,32.0,29.92,NE,45,4.0,4.0,66,0.00,,,0.00,meteohub,2013-03-02 14:52:00,
2013-03-02 09:57:00,42.6,31.3,29.91,NE,45,4.0,4.0,64,0.00,,,0.00,meteohub,2013-03-02 14:57:00,
2013-03-02 10:02:00,42.4,30.7,29.92,NW,315,2.0,5.0,63,0.00,,,0.00,meteohub,2013-03-02 15:02:00,
2013-03-02 10:07:00,42.8,31.1,29.92,SW,225,4.0,5.0,63,0.00,,,0.00,meteohub,2013-03-02 15:07:00,
2013-03-02 10:12:00,43.0,31.6,29.92,NW,315,2.0,5.0,64,0.00,,,0.00,meteohub,2013-03-02 15:12:00,
2013-03-02 10:17:00,43.5,31.3,29.91,West,270,3.0,4.0,62,0.00,,,0.00,meteohub,2013-03-02 15:17:00,
2013-03-02 10:22:00,43.7,30.7,29.91,West,270,3.0,6.0,60,0.00,,,0.00,meteohub,2013-03-02 15:22:00,
2013-03-02 10:27:00,44.1,31.1,29.91,East,90,3.0,6.0,60,0.00,,,0.00,meteohub,2013-03-02 15:27:00,
2013-03-02 10:32:00,44.4,30.2,29.91,NW,315,2.0,6.0,57,0.00,,,0.00,meteohub,2013-03-02 15:32:00,
2013-03-02 10:37:00,44.4,30.2,29.91,SW,225,4.0,4.0,57,0.00,,,0.00,meteohub,2013-03-02 15:37:00,
2013-03-02 10:42:00,44.1,29.8,29.91,West,270,1.0,4.0,57,0.00,,,0.00,meteohub,2013-03-02 15:42:00,
2013-03-02 10:47:00,44.4,29.7,29.92,North,0,4.0,4.0,56,0.00,,,0.00,meteohub,2013-03-02 15:47:00,
2013-03-02 10:52:00,44.4,30.2,29.91,West,270,2.0,4.0,57,0.00,,,0.00,meteohub,2013-03-02 15:52:00,
2013-03-02 10:58:00,44.4,29.7,29.91,North,0,2.0,4.0,56,0.00,,,0.00,meteohub,2013-03-02 15:58:00,
2013-03-02 11:03:00,44.6,29.5,29.91,SW,225,2.0,5.0,55,0.00,,,0.00,meteohub,2013-03-02 16:03:00,
2013-03-02 11:08:00,45.0,29.8,29.91,NW,315,4.0,5.0,55,0.00,,,0.00,meteohub,2013-03-02 16:08:00,
2013-03-02 11:13:00,45.1,30.7,29.91,NW,315,4.0,5.0,57,0.00,,,0.00,meteohub,2013-03-02 16:13:00,
2013-03-02 11:18:00,45.1,29.5,29.91,East,90,2.0,6.0,54,0.00,,,0.00,meteohub,2013-03-02 16:18:00,
2013-03-02 11:23:00,45.5,30.2,29.91,East,90,2.0,6.0,55,0.00,,,0.00,meteohub,2013-03-02 16:23:00,
2013-03-02 11:28:00,46.4,31.1,29.91,East,90,3.0,6.0,55,0.00,,,0.00,meteohub,2013-03-02 16:28:00,
2013-03-02 11:33:00,46.6,31.3,29.90,NW,315,2.0,4.0,55,0.00,,,0.00,meteohub,2013-03-02 16:33:00,
2013-03-02 11:38:00,46.9,31.6,29.90,NE,45,6.0,6.0,55,0.00,,,0.00,meteohub,2013-03-02 16:38:00,
2013-03-02 11:43:00,46.8,31.5,29.90,North,0,4.0,5.0,55,0.00,,,0.00,meteohub,2013-03-02 16:43:00,
2013-03-02 11:48:00,46.4,31.1,29.90,NW,315,2.0,6.0,55,0.00,,,0.00,meteohub,2013-03-02 16:48:00,
2013-03-02 11:54:00,46.6,31.3,29.90,North,0,4.0,6.0,55,0.00,,,0.00,meteohub,2013-03-02 16:54:00,
2013-03-02 11:59:00,47.1,31.8,29.89,SW,225,3.0,6.0,55,0.00,,,0.00,meteohub,2013-03-02 16:59:00,
2013-03-02 12:04:00,47.7,31.8,29.89,West,270,4.0,4.0,54,0.00,,,0.00,meteohub,2013-03-02 17:04:00,
2013-03-02 12:09:00,48.2,31.8,29.89,West,270,4.0,4.0,53,0.00,,,0.00,meteohub,2013-03-02 17:09:00,
2013-03-02 12:14:00,48.7,31.8,29.89,NW,315,2.0,4.0,52,0.00,,,0.00,meteohub,2013-03-02 17:14:00,
2013-03-02 12:19:00,48.6,31.3,29.89,West,270,6.0,6.0,51,0.00,,,0.00,meteohub,2013-03-02 17:19:00,
2013-03-02 12:24:00,48.2,30.9,29.89,North,0,4.0,7.0,51,0.00,,,0.00,meteohub,2013-03-02 17:24:00,
2013-03-02 12:29:00,48.4,30.0,29.88,SW,225,4.0,7.0,49,0.00,,,0.00,meteohub,2013-03-02 17:29:00,
2013-03-02 12:34:00,48.2,30.0,29.88,West,270,4.0,7.0,49,0.00,,,0.00,meteohub,2013-03-02 17:34:00,
2013-03-02 12:39:00,48.6,31.3,29.88,SW,225,4.0,6.0,51,0.00,,,0.00,meteohub,2013-03-02 17:39:00,
2013-03-02 12:44:00,49.3,31.5,29.87,South,180,4.0,6.0,50,0.00,,,0.00,meteohub,2013-03-02 17:44:00,
2013-03-02 12:49:00,49.8,31.5,29.87,NNW,338,2.0,5.0,49,0.00,,,0.00,meteohub,2013-03-02 17:49:00,
2013-03-02 12:55:00,51.4,34.3,29.87,West,270,6.0,11.0,52,0.00,,,0.00,meteohub,2013-03-02 17:55:00,
2013-03-02 13:00:00,50.5,30.6,29.86,NW,315,7.0,11.0,46,0.00,,,0.00,meteohub,2013-03-02 18:00:00,
2013-03-02 13:05:00,50.5,30.6,29.86,NW,315,7.0,11.0,46,0.00,,,0.00,meteohub,2013-03-02 18:05:00,
2013-03-02 13:10:00,50.2,31.8,29.86,South,180,3.0,8.0,49,0.00,,,0.00,meteohub,2013-03-02 18:10:00,
2013-03-02 13:15:00,50.5,31.6,29.86,NW,315,4.0,7.0,48,0.00,,,0.00,meteohub,2013-03-02 18:15:00,
2013-03-02 13:20:00,50.0,30.6,29.86,NE,45,4.0,7.0,47,0.00,,,0.00,meteohub,2013-03-02 18:20:00,
2013-03-02 13:25:00,50.0,30.6,29.86,North,0,2.0,5.0,47,0.00,,,0.00,meteohub,2013-03-02 18:25:00,
2013-03-02 13:30:00,49.5,30.6,29.86,North,0,4.0,6.0,48,0.00,,,0.00,meteohub,2013-03-02 18:30:00,
2013-03-02 13:35:00,49.5,31.1,29.86,East,90,3.0,6.0,49,0.00,,,0.00,meteohub,2013-03-02 18:35:00,
2013-03-02 13:40:00,48.9,30.6,29.86,SW,225,5.0,6.0,49,0.00,,,0.00,meteohub,2013-03-02 18:40:00,
2013-03-02 13:45:00,48.6,29.8,29.85,South,180,2.0,5.0,48,0.00,,,0.00,meteohub,2013-03-02 18:45:00,
2013-03-02 13:50:00,48.9,31.1,29.85,North,0,4.0,5.0,50,0.00,,,0.00,meteohub,2013-03-02 18:50:00,
2013-03-02 13:55:00,49.5,31.6,29.85,West,270,4.0,7.0,50,0.00,,,0.00,meteohub,2013-03-02 18:55:00,
2013-03-02 14:00:00,48.9,30.0,29.85,East,90,4.0,7.0,48,0.00,,,0.00,meteohub,2013-03-02 19:00:00,
2013-03-02 14:05:00,48.9,30.6,29.85,NE,45,3.0,7.0,49,0.00,,,0.00,meteohub,2013-03-02 19:05:00,
2013-03-02 14:10:00,49.5,31.1,29.85,SW,225,2.0,7.0,49,0.00,,,0.00,meteohub,2013-03-02 19:10:00,
2013-03-02 14:15:00,48.9,30.0,29.85,West,270,3.0,6.0,48,0.00,,,0.00,meteohub,2013-03-02 19:15:00,
2013-03-02 14:20:00,48.7,30.9,29.86,NE,45,4.0,8.0,50,0.00,,,0.00,meteohub,2013-03-02 19:20:00,
2013-03-02 14:25:00,48.6,30.2,29.85,SW,225,4.0,8.0,49,0.00,,,0.00,meteohub,2013-03-02 19:25:00,
2013-03-02 14:31:00,48.7,30.4,29.86,North,0,2.0,8.0,49,0.00,,,0.00,meteohub,2013-03-02 19:31:00,
2013-03-02 14:36:00,49.3,30.4,29.85,East,90,4.0,5.0,48,0.00,,,0.00,meteohub,2013-03-02 19:36:00,
2013-03-02 14:41:00,49.3,30.4,29.86,South,180,3.0,5.0,48,0.00,,,0.00,meteohub,2013-03-02 19:41:00,
2013-03-02 14:46:00,49.3,30.9,29.85,West,270,4.0,6.0,49,0.00,,,0.00,meteohub,2013-03-02 19:46:00,
2013-03-02 14:51:00,49.1,30.2,29.85,West,270,4.0,6.0,48,0.00,,,0.00,meteohub,2013-03-02 19:51:00,
2013-03-02 14:56:00,49.3,31.5,29.85,North,0,4.0,6.0,50,0.00,,,0.00,meteohub,2013-03-02 19:56:00,
2013-03-02 15:01:00,49.3,30.9,29.85,NE,45,6.0,7.0,49,0.00,,,0.00,meteohub,2013-03-02 20:01:00,
2013-03-02 15:06:00,49.3,30.9,29.85,NE,45,6.0,7.0,49,0.00,,,0.00,meteohub,2013-03-02 20:06:00,
2013-03-02 15:11:00,48.6,30.2,29.85,West,270,2.0,7.0,49,0.00,,,0.00,meteohub,2013-03-02 20:11:00,
2013-03-02 15:16:00,48.4,30.0,29.85,West,270,3.0,7.0,49,0.00,,,0.00,meteohub,2013-03-02 20:16:00,
2013-03-02 15:22:00,48.6,30.2,29.84,West,270,4.0,7.0,49,0.00,,,0.00,meteohub,2013-03-02 20:22:00,
2013-03-02 15:27:00,48.6,30.2,29.84,North,0,1.0,5.0,49,0.00,,,0.00,meteohub,2013-03-02 20:27:00,
2013-03-02 15:32:00,49.1,30.2,29.84,SE,135,5.0,5.0,48,0.00,,,0.00,meteohub,2013-03-02 20:32:00,
2013-03-02 15:37:00,49.5,30.6,29.84,SW,225,4.0,5.0,48,0.00,,,0.00,meteohub,2013-03-02 20:37:00,
2013-03-02 15:42:00,50.4,30.9,29.84,SW,225,4.0,5.0,47,0.00,,,0.00,meteohub,2013-03-02 20:42:00,
2013-03-02 15:47:00,50.4,30.9,29.85,North,0,2.0,5.0,47,0.00,,,0.00,meteohub,2013-03-02 20:47:00,
2013-03-02 15:52:00,49.5,30.6,29.84,SW,225,2.0,4.0,48,0.00,,,0.00,meteohub,2013-03-02 20:52:00,
2013-03-02 15:57:00,49.5,31.1,29.84,SW,225,3.0,6.0,49,0.00,,,0.00,meteohub,2013-03-02 20:57:00,
2013-03-02 16:02:00,48.7,29.8,29.84,East,90,2.0,6.0,48,0.00,,,0.00,meteohub,2013-03-02 21:02:00,
2013-03-02 16:07:00,48.6,30.7,29.85,SE,135,3.0,6.0,50,0.00,,,0.00,meteohub,2013-03-02 21:07:00,
2013-03-02 16:12:00,48.4,30.6,29.84,East,90,2.0,4.0,50,0.00,,,0.00,meteohub,2013-03-02 21:12:00,
2013-03-02 16:18:00,48.2,30.4,29.85,NE,45,2.0,6.0,50,0.00,,,0.00,meteohub,2013-03-02 21:18:00,
2013-03-02 16:23:00,48.2,30.9,29.85,SW,225,4.0,6.0,51,0.00,,,0.00,meteohub,2013-03-02 21:23:00,
2013-03-02 16:28:00,47.8,30.6,29.85,West,270,2.0,6.0,51,0.00,,,0.00,meteohub,2013-03-02 21:28:00,
2013-03-02 16:33:00,47.8,30.6,29.85,West,270,4.0,6.0,51,0.00,,,0.00,meteohub,2013-03-02 21:33:00,
2013-03-02 16:38:00,47.7,30.4,29.85,NW,315,3.0,6.0,51,0.00,,,0.00,meteohub,2013-03-02 21:38:00,
2013-03-02 16:43:00,47.7,30.9,29.85,NE,45,1.0,4.0,52,0.00,,,0.00,meteohub,2013-03-02 21:43:00,
2013-03-02 16:48:00,47.7,31.3,29.85,NE,45,2.0,4.0,53,0.00,,,0.00,meteohub,2013-03-02 21:48:00,
2013-03-02 16:53:00,47.7,31.8,29.85,West,270,2.0,4.0,54,0.00,,,0.00,meteohub,2013-03-02 21:53:00,
2013-03-02 16:58:00,47.1,31.3,29.85,NE,45,1.0,3.0,54,0.00,,,0.00,meteohub,2013-03-02 21:58:00,
2013-03-02 17:04:00,46.9,31.6,29.85,West,270,2.0,3.0,55,0.00,,,0.00,meteohub,2013-03-02 22:04:00,
2013-03-02 17:09:00,46.6,31.3,29.86,NE,45,2.0,3.0,55,0.00,,,0.00,meteohub,2013-03-02 22:09:00,
2013-03-02 17:14:00,46.2,30.0,29.86,North,0,2.0,3.0,53,0.00,,,0.00,meteohub,2013-03-02 22:14:00,
2013-03-02 17:19:00,46.0,30.7,29.85,West,270,2.0,3.0,55,0.00,,,0.00,meteohub,2013-03-02 22:19:00,
2013-03-02 17:24:00,45.9,31.1,29.86,NW,315,2.0,4.0,56,0.00,,,0.00,meteohub,2013-03-02 22:24:00,
2013-03-02 17:29:00,45.7,30.4,29.86,NE,45,2.0,4.0,55,0.00,,,0.00,meteohub,2013-03-02 22:29:00,
2013-03-02 17:34:00,45.5,30.2,29.86,West,270,2.0,4.0,55,0.00,,,0.00,meteohub,2013-03-02 22:34:00,
2013-03-02 17:39:00,45.5,30.7,29.86,West,270,3.0,4.0,56,0.00,,,0.00,meteohub,2013-03-02 22:39:00,
2013-03-02 17:44:00,45.3,30.6,29.86,West,270,2.0,4.0,56,0.00,,,0.00,meteohub,2013-03-02 22:44:00,
2013-03-02 17:49:00,45.3,30.6,29.87,NW,315,2.0,4.0,56,0.00,,,0.00,meteohub,2013-03-02 22:49:00,
2013-03-02 17:54:00,45.3,30.6,29.87,South,180,2.0,4.0,56,0.00,,,0.00,meteohub,2013-03-02 22:54:00,
2013-03-02 17:59:00,45.1,30.4,29.87,NW,315,4.0,5.0,56,0.00,,,0.00,meteohub,2013-03-02 22:59:00,
2013-03-02 18:04:00,45.0,30.6,29.87,North,0,2.0,5.0,57,0.00,,,0.00,meteohub,2013-03-02 23:04:00,
2013-03-02 18:09:00,45.0,30.6,29.88,NE,45,2.0,5.0,57,0.00,,,0.00,meteohub,2013-03-02 23:09:00,
2013-03-02 18:14:00,44.6,30.4,29.88,West,270,2.0,5.0,57,0.00,,,0.00,meteohub,2013-03-02 23:14:00,
2013-03-02 18:20:00,44.6,30.4,29.88,SW,225,2.0,4.0,57,0.00,,,0.00,meteohub,2013-03-02 23:20:00,
2013-03-02 18:25:00,44.4,30.9,29.88,NE,45,4.0,4.0,59,0.00,,,0.00,meteohub,2013-03-02 23:25:00,
2013-03-02 18:30:00,44.4,31.5,29.88,NE,45,4.0,4.0,60,0.00,,,0.00,meteohub,2013-03-02 23:30:00,
2013-03-02 18:35:00,44.4,31.5,29.88,NE,45,2.0,4.0,60,0.00,,,0.00,meteohub,2013-03-02 23:35:00,
2013-03-02 18:40:00,44.2,30.7,29.89,NE,45,2.0,4.0,59,0.00,,,0.00,meteohub,2013-03-02 23:40:00,
2013-03-02 18:45:00,43.9,30.9,29.89,NE,45,2.0,4.0,60,0.00,,,0.00,meteohub,2013-03-02 23:45:00,
2013-03-02 18:50:00,43.9,31.3,29.89,SW,225,4.0,4.0,61,0.00,,,0.00,meteohub,2013-03-02 23:50:00,
2013-03-02 18:55:00,43.9,31.3,29.89,West,270,4.0,5.0,61,0.00,,,0.00,meteohub,2013-03-02 23:55:00,
2013-03-02 19:00:00,43.7,31.1,29.89,NW,315,3.0,5.0,61,0.00,,,0.00,meteohub,2013-03-03 00:00:00,
2013-03-02 19:05:00,43.7,31.1,29.89,North,0,3.0,5.0,61,0.00,,,0.00,meteohub,2013-03-03 00:05:00,
2013-03-02 19:11:00,43.5,30.9,29.90,West,270,3.0,5.0,61,0.00,,,0.00,meteohub,2013-03-03 00:11:00,
2013-03-02 19:16:00,43.3,31.3,29.90,NW,315,3.0,8.0,62,0.00,,,0.00,meteohub,2013-03-03 00:16:00,
2013-03-02 19:21:00,43.2,31.1,29.90,NW,315,3.0,8.0,62,0.00,,,0.00,meteohub,2013-03-03 00:21:00,
2013-03-02 19:26:00,43.0,30.9,29.90,NW,315,6.0,8.0,62,0.00,,,0.00,meteohub,2013-03-03 00:26:00,
2013-03-02 19:31:00,43.0,30.9,29.91,NNW,338,4.0,6.0,62,0.00,,,0.00,meteohub,2013-03-03 00:31:00,
2013-03-02 19:36:00,42.8,30.7,29.91,NE,45,4.0,6.0,62,0.00,,,0.00,meteohub,2013-03-03 00:36:00,
2013-03-02 19:41:00,42.6,30.9,29.91,NW,315,6.0,7.0,63,0.00,,,0.00,meteohub,2013-03-03 00:41:00,
2013-03-02 19:46:00,42.4,30.7,29.91,NE,45,2.0,7.0,63,0.00,,,0.00,meteohub,2013-03-03 00:46:00,
2013-03-02 19:51:00,42.1,30.4,29.91,NW,315,4.0,7.0,63,0.00,,,0.00,meteohub,2013-03-03 00:51:00,
2013-03-02 19:56:00,41.9,30.2,29.91,NE,45,3.0,7.0,63,0.00,,,0.00,meteohub,2013-03-03 00:56:00,
2013-03-02 20:01:00,41.9,30.2,29.91,West,270,2.0,4.0,63,0.00,,,0.00,meteohub,2013-03-03 01:01:00,
2013-03-02 20:06:00,41.7,30.0,29.92,NW,315,3.0,4.0,63,0.00,,,0.00,meteohub,2013-03-03 01:06:00,
2013-03-02 20:11:00,41.7,30.0,29.92,West,270,3.0,4.0,63,0.00,,,0.00,meteohub,2013-03-03 01:11:00,
2013-03-02 20:16:00,41.4,29.7,29.92,NW,315,4.0,7.0,63,0.00,,,0.00,meteohub,2013-03-03 01:16:00,
2013-03-02 20:21:00,41.2,29.5,29.92,West,270,5.0,7.0,63,0.00,,,0.00,meteohub,2013-03-03 01:21:00,
2013-03-02 20:27:00,40.8,29.7,29.92,West,270,7.0,7.0,64,0.00,,,0.00,meteohub,2013-03-03 01:27:00,
2013-03-02 20:32:00,40.6,28.6,29.93,West,270,3.0,7.0,62,0.00,,,0.00,meteohub,2013-03-03 01:32:00,
2013-03-02 20:37:00,40.5,29.3,29.94,West,270,5.0,7.0,64,0.00,,,0.00,meteohub,2013-03-03 01:37:00,
2013-03-02 20:42:00,40.3,28.2,29.94,West,270,5.0,7.0,62,0.00,,,0.00,meteohub,2013-03-03 01:42:00,
2013-03-02 20:47:00,40.1,27.7,29.94,West,270,4.0,7.0,61,0.00,,,0.00,meteohub,2013-03-03 01:47:00,
2013-03-02 20:52:00,39.7,27.0,29.94,North,0,5.0,7.0,60,0.00,,,0.00,meteohub,2013-03-03 01:52:00,
2013-03-02 20:57:00,39.6,26.4,29.95,SW,225,9.0,9.0,59,0.00,,,0.00,meteohub,2013-03-03 01:57:00,
2013-03-02 21:02:00,39.6,26.4,29.95,NW,315,5.0,9.0,59,0.00,,,0.00,meteohub,2013-03-03 02:02:00,
2013-03-02 21:07:00,39.4,26.2,29.95,SW,225,7.0,9.0,59,0.00,,,0.00,meteohub,2013-03-03 02:07:00,
2013-03-02 21:12:00,39.2,26.1,29.95,North,0,2.0,9.0,59,0.00,,,0.00,meteohub,2013-03-03 02:12:00,
2013-03-02 21:18:00,38.8,26.1,29.96,SE,135,2.0,7.0,60,0.00,,,0.00,meteohub,2013-03-03 02:18:00,
2013-03-02 21:23:00,38.7,26.1,29.96,West,270,4.0,7.0,60,0.00,,,0.00,meteohub,2013-03-03 02:23:00,
2013-03-02 21:28:00,38.3,25.7,29.96,SW,225,4.0,8.0,60,0.00,,,0.00,meteohub,2013-03-03 02:28:00,
2013-03-02 21:33:00,38.3,25.7,29.96,North,0,4.0,8.0,60,0.00,,,0.00,meteohub,2013-03-03 02:33:00,
2013-03-02 21:39:00,37.8,25.5,29.96,East,90,6.0,8.0,61,0.00,,,0.00,meteohub,2013-03-03 02:39:00,
2013-03-02 21:44:00,37.8,25.5,29.96,West,270,4.0,8.0,61,0.00,,,0.00,meteohub,2013-03-03 02:44:00,
2013-03-02 21:49:00,37.6,25.3,29.96,West,270,5.0,6.0,61,0.00,,,0.00,meteohub,2013-03-03 02:49:00,
2013-03-02 21:54:00,37.2,23.4,29.96,West,270,8.0,8.0,57,0.00,,,0.00,meteohub,2013-03-03 02:54:00,
2013-03-02 21:59:00,37.0,23.7,29.96,NE,45,2.0,8.0,58,0.00,,,0.00,meteohub,2013-03-03 02:59:00,
2013-03-02 22:04:00,36.9,23.5,29.96,West,270,4.0,8.0,58,0.00,,,0.00,meteohub,2013-03-03 03:04:00,
2013-03-02 22:09:00,36.5,23.2,29.97,SW,225,2.0,8.0,58,0.00,,,0.00,meteohub,2013-03-03 03:09:00,
2013-03-02 22:14:00,36.3,23.4,29.96,North,0,4.0,8.0,59,0.00,,,0.00,meteohub,2013-03-03 03:14:00,
2013-03-02 22:19:00,36.3,23.4,29.97,NW,315,6.0,6.0,59,0.00,,,0.00,meteohub,2013-03-03 03:19:00,
2013-03-02 22:24:00,36.1,23.2,29.97,North,0,4.0,5.0,59,0.00,,,0.00,meteohub,2013-03-03 03:24:00,
2013-03-02 22:29:00,36.0,23.0,29.97,West,270,3.0,6.0,59,0.00,,,0.00,meteohub,2013-03-03 03:29:00,
2013-03-02 22:34:00,35.8,22.5,29.97,SW,225,4.0,6.0,58,0.00,,,0.00,meteohub,2013-03-03 03:34:00,
2013-03-02 22:39:00,35.6,22.6,29.97,SW,225,4.0,4.0,59,0.00,,,0.00,meteohub,2013-03-03 03:39:00,
2013-03-02 22:44:00,35.6,22.3,29.97,SW,225,2.0,4.0,58,0.00,,,0.00,meteohub,2013-03-03 03:44:00,
2013-03-02 22:49:00,35.4,23.0,29.97,West,270,3.0,4.0,60,0.00,,,0.00,meteohub,2013-03-03 03:49:00,
2013-03-02 22:54:00,35.2,22.8,29.97,NW,315,2.0,4.0,60,0.00,,,0.00,meteohub,2013-03-03 03:54:00,
2013-03-02 22:59:00,35.1,22.6,29.97,West,270,4.0,5.0,60,0.00,,,0.00,meteohub,2013-03-03 03:59:00,
2013-03-02 23:04:00,35.1,22.6,29.97,West,270,4.0,5.0,60,0.00,,,0.00,meteohub,2013-03-03 04:04:00,
2013-03-02 23:10:00,34.7,23.0,29.98,SW,225,1.0,5.0,62,0.00,,,0.00,meteohub,2013-03-03 04:10:00,
2013-03-02 23:15:00,34.5,22.5,29.97,SW,225,3.0,4.0,61,0.00,,,0.00,meteohub,2013-03-03 04:15:00,
2013-03-02 23:20:00,34.5,22.5,29.97,West,270,0.0,4.0,61,0.00,,,0.00,meteohub,2013-03-03 04:20:00,
2013-03-02 23:25:00,34.2,22.5,29.97,NW,315,2.0,3.0,62,0.00,,,0.00,meteohub,2013-03-03 04:25:00,
2013-03-02 23:30:00,33.8,22.1,29.98,NW,315,2.0,3.0,62,0.00,,,0.00,meteohub,2013-03-03 04:30:00,
2013-03-02 23:35:00,33.6,22.5,29.97,NW,315,0.0,2.0,63,0.00,,,0.00,meteohub,2013-03-03 04:35:00,
2013-03-02 23:40:00,33.4,22.3,29.98,NW,315,1.0,2.0,63,0.00,,,0.00,meteohub,2013-03-03 04:40:00,
2013-03-02 23:46:00,33.3,22.1,29.97,NW,315,0.0,2.0,63,0.00,,,0.00,meteohub,2013-03-03 04:46:00,
2013-03-02 23:51:00,33.1,22.3,29.97,NW,315,2.0,2.0,64,0.00,,,0.00,meteohub,2013-03-03 04:51:00,
2013-03-02 23:56:00,32.9,22.1,29.97,West,270,2.0,3.0,64,0.00,,,0.00,meteohub,2013-03-03 04:56:00,